Temp
14 11 11 15 11 15 14 12 12 14 16 14 13 14 15 17 17 14 16 17 19 21 23 22 22 20 19 19 19 18 17 16 14 13 11 10 11 11 11 11 11 11 11 11
12 10 13 14 13 12 12 13 14 15 14 12 14 14 16 14 17 18 17 18 19 21 23 22 21 19 19 19 19 18 17 16 15 13 12 11 12 11 11 11 11 10 10 10
14 14 12 13 12 12 12 12 14 14 14 12 11 13 12 13 15 16 17 18 19 21 20 21 21 20 19 19 19 19 17 16 14 13 11 10 10 9 10 10 10 10 10 9
10 13 13 11 12 13 15 12 13 12 12 13 13 14 14 14 13 13 15 18 19 22 22 22 21 20 20 20 19 18 16 15 13 12 12 11 12 12 12 11 11 10 9 9
13 14 12 11 14 12 15 14 13 13 11 10 11 10 15 13 13 14 16 19 22 23 23 23 21 21 20 20 19 17 15 14 13 12 11 11 11 11 12 11 10 9 9 9
10 12 12 12 12 11 12 13 11 7 9 11 12 12 16 12 14 15 15 19 22 25 25 22 20 20 20 19 18 16 15 14 13 12 11 11 11 11 11 10 10 9 9 8
11 10 10 12 13 11 12 11 9 8 6 10 11 9 17 16 17 14 16 20 23 23 24 21 20 21 20 19 18 16 14 14 13 12 12 12 12 12 12 11 10 10 9 9
11 13 10 10 12 11 10 12 11 9 11 15 6 10 14 13 15 18 18 18 18 19 20 20 22 22 20 19 17 16 15 14 13 14 14 13 13 13 12 11 10 9 9 9
10 12 11 10 11 12 11 9 12 9 -0 5 14 13 15 14 14 13 15 17 17 18 18 20 21 21 20 19 17 17 16 16 14 14 13 14 13 13 13 12 10 9 8 8
11 12 13 11 11 11 11 11 9 7 9 8 11 13 16 15 16 13 13 14 17 17 18 17 18 18 18 18 17 16 16 16 16 13 13 13 14 14 12 12 11 9 8 7
10 10 10 10 9 11 9 10 10 10 8 13 13 14 14 14 14 14 13 19 18 16 18 18 19 18 17 17 17 16 16 15 15 15 15 14 14 13 12 12 11 10 8 6
10 9 7 9 10 9 9 11 12 12 10 8 9 12 14 15 14 14 15 18 19 17 18 18 18 18 18 18 18 18 17 16 16 16 15 15 13 13 12 11 11 10 7 5
9 7 9 7 8 9 9 10 11 11 8 11 9 10 15 15 14 15 14 16 16 18 17 18 16 16 17 17 18 18 17 15 16 16 15 14 13 12 12 11 10 9 7 5
9 8 9 9 11 10 10 9 9 11 10 11 11 12 14 14 15 15 15 15 15 16 16 16 16 17 17 17 17 17 17 17 17 16 14 14 13 13 12 10 9 8 7 5
7 7 7 7 9 9 10 10 10 11 12 11 12 12 13 14 14 15 15 15 14 14 14 14 15 15 15 16 16 16 17 16 16 16 15 15 15 13 10 9 8 6 5 4
4 6 6 7 7 6 7 9 10 10 10 10 10 10 13 13 13 13 13 14 14 12 9 9 11 13 14 14 15 16 16 16 16 15 15 14 14 12 10 9 8 5 3 2
4 4 5 6 5 5 5 8 7 8 9 9 8 10 5 4 6 9 9 1 1 2 1 2 3 5 7 11 12 14 14 14 14 14 14 13 13 12 10 9 6 5 3 2
4 4 4 5 5 5 7 6 7 7 8 8 4 0 -1 -1 -1 1 0 -1 -1 -0 1 1 2 3 4 7 9 11 13 13 13 12 12 11 11 10 9 7 5 4 3 2
4 4 4 4 5 7 8 4 2 2 3 -1 -1 -1 -2 -3 -1 2 -1 -1 -1 0 1 1 2 2 3 5 6 9 10 11 11 11 12 11 11 10 9 6 5 3 2 0
3 3 3 2 1 3 -0 -2 -1 1 3 -2 -3 -3 -3 -3 -3 -2 -2 -2 -2 -1 -1 -0 2 2 2 3 4 5 7 9 10 11 10 10 8 8 7 5 3 2 1 -0
-7 -6 -2 -0 1 2 -1 -1 2 0 -2 -2 -3 -3 -3 -3 -3 -3 -3 -2 -3 -3 -2 -2 -2 1 3 2 1 3 4 5 6 7 7 7 7 6 4 3 2 1 -1 -2
-2 -4 -5 -4 -5 -2 -2 -1 -3 -1 -0 -2 -2 -3 -3 -4 -5 -4 -4 -4 -4 -4 -4 -4 -3 -3 -1 1 1 1 1 3 4 4 5 4 4 3 2 1 1 -0 -2 -3
-5 -3 -7 -3 -3 -1 -1 -1 -1 -2 -3 -3 -5 -5 -6 -6 -6 -6 -6 -6 -6 -6 -6 -5 -5 -3 -4 -4 -3 2 2 -1 1 3 3 3 2 0 0 -0 -1 -3 -3 -4
-5 -2 -5 -6 -2 -2 -1 -1 -1 -3 -4 -4 -5 -6 -7 -8 -7 -7 -8 -8 -7 -7 -7 -7 -6 -6 -4 -2 -5 -4 -2 -2 -1 -1 2 3 2 1 0 -0 -2 -4 -4 -5
-4 -4 -5 -4 -2 -2 -2 -1 -3 -3 -4 -5 -6 -6 -8 -10 -9 -10 -11 -10 -9 -8 -7 -9 -9 -8 -5 -5 -3 -5 -5 -3 -3 -2 -1 -0 -0 1 -0 -1 -2 -3 -3 -3
-3 -3 -3 -4 -1 -1 -2 -2 -3 -5 -7 -8 -9 -9 -8 -11 -11 -10 -10 -10 -12 -12 -12 -12 -11 -9 -7 -8 -6 -4 -7 -6 -5 -3 -4 -3 -2 -2 -3 -4 -4 -6 -8 -8
Height
1516 1522 1524 1509 1512 1503 1511 1515 1512 1500 1490 1492 1489 1481 1474 1466 1464 1460 1456 1450 1446 1443 1434 1437 1439 1444 1445 1447 1447 1449 1452 1456 1461 1466 1469 1474 1477 1482 1486 1491 1495 1497 1500 1503
1515 1515 1502 1500 1504 1509 1510 1508 1504 1490 1487 1492 1483 1470 1465 1463 1455 1449 1447 1440 1435 1430 1425 1426 1430 1433 1433 1435 1437 1438 1442 1446 1452 1457 1462 1467 1470 1475 1480 1485 1487 1491 1494 1497
1499 1495 1498 1503 1503 1507 1500 1506 1494 1492 1489 1485 1483 1464 1464 1452 1446 1439 1434 1430 1426 1418 1415 1414 1418 1423 1424 1424 1426 1428 1432 1439 1445 1451 1455 1460 1466 1470 1473 1475 1478 1483 1487 1491
1498 1490 1491 1498 1500 1498 1485 1489 1490 1493 1496 1492 1481 1444 1452 1446 1438 1431 1425 1420 1416 1410 1408 1407 1408 1412 1415 1417 1420 1422 1428 1434 1440 1445 1448 1449 1453 1456 1460 1465 1471 1476 1481 1485
1484 1482 1487 1490 1480 1489 1475 1485 1488 1488 1494 1493 1489 1492 1431 1435 1437 1425 1415 1413 1410 1404 1400 1399 1402 1404 1407 1410 1413 1417 1422 1429 1433 1437 1442 1446 1450 1454 1457 1461 1466 1472 1476 1479
1483 1478 1479 1475 1474 1477 1479 1478 1489 1499 1499 1486 1479 1483 1406 1439 1428 1421 1412 1405 1400 1397 1396 1394 1397 1398 1401 1405 1408 1412 1418 1423 1426 1432 1435 1439 1444 1447 1449 1452 1457 1461 1466 1470
1480 1475 1466 1471 1478 1476 1479 1485 1505 1509 1520 1484 1458 1475 1424 1421 1414 1412 1405 1397 1394 1392 1390 1391 1393 1392 1395 1398 1402 1406 1411 1415 1419 1422 1426 1430 1435 1438 1442 1445 1451 1455 1457 1459
1487 1469 1467 1463 1469 1469 1474 1474 1482 1499 1482 1448 1475 1454 1422 1411 1404 1400 1400 1397 1391 1388 1388 1385 1388 1388 1391 1393 1395 1401 1405 1409 1412 1413 1416 1421 1426 1431 1436 1440 1444 1446 1451 1456
1481 1467 1461 1462 1459 1463 1469 1477 1457 1473 1505 1492 1433 1419 1407 1407 1405 1399 1400 1397 1383 1375 1381 1382 1384 1385 1386 1390 1391 1395 1400 1403 1407 1409 1411 1413 1420 1423 1426 1430 1436 1440 1445 1449
1464 1468 1453 1458 1462 1459 1461 1460 1471 1474 1473 1475 1446 1426 1409 1408 1403 1401 1393 1394 1385 1378 1377 1380 1379 1386 1388 1390 1391 1394 1396 1399 1401 1405 1408 1410 1412 1417 1419 1423 1425 1431 1437 1441
1463 1467 1459 1458 1459 1456 1463 1461 1456 1453 1454 1435 1436 1422 1407 1403 1399 1400 1394 1391 1387 1386 1382 1382 1383 1384 1389 1391 1391 1390 1392 1392 1394 1396 1399 1402 1404 1406 1410 1412 1415 1421 1426 1433
1460 1462 1469 1457 1453 1448 1449 1446 1438 1439 1439 1444 1438 1423 1394 1394 1392 1393 1391 1389 1390 1389 1385 1383 1383 1384 1386 1389 1388 1386 1385 1385 1386 1387 1389 1392 1395 1398 1399 1402 1405 1410 1414 1421
1452 1460 1451 1455 1448 1441 1440 1432 1430 1424 1426 1416 1425 1415 1391 1388 1385 1380 1385 1382 1385 1386 1384 1381 1380 1378 1379 1380 1380 1379 1377 1375 1377 1378 1379 1381 1384 1387 1389 1390 1395 1400 1404 1410
1450 1446 1441 1430 1422 1423 1425 1423 1423 1419 1418 1408 1403 1393 1387 1379 1373 1365 1379 1377 1380 1381 1378 1376 1377 1374 1373 1373 1370 1368 1366 1368 1369 1369 1370 1369 1370 1374 1378 1378 1382 1388 1393 1399
1447 1437 1436 1422 1417 1418 1414 1414 1411 1404 1395 1395 1384 1381 1383 1374 1364 1364 1368 1370 1374 1374 1371 1372 1371 1367 1366 1363 1359 1359 1356 1356 1358 1358 1356 1356 1359 1362 1369 1366 1370 1377 1382 1388
1449 1432 1425 1410 1410 1410 1409 1402 1397 1391 1385 1381 1381 1380 1372 1371 1369 1366 1364 1366 1367 1373 1370 1368 1363 1361 1355 1357 1355 1350 1345 1344 1344 1344 1343 1346 1346 1348 1354 1354 1357 1365 1370 1377
1446 1440 1428 1410 1417 1416 1406 1396 1390 1380 1381 1380 1379 1371 1385 1384 1382 1375 1370 1377 1381 1378 1372 1368 1363 1355 1352 1349 1343 1336 1335 1330 1328 1329 1329 1330 1335 1338 1340 1342 1346 1351 1358 1366
1435 1431 1428 1413 1411 1399 1385 1384 1380 1379 1377 1376 1383 1391 1397 1399 1391 1383 1380 1383 1380 1376 1370 1365 1360 1351 1343 1335 1330 1324 1321 1318 1318 1316 1317 1320 1323 1326 1329 1333 1337 1341 1346 1352
1422 1420 1414 1409 1394 1375 1376 1398 1400 1399 1393 1403 1400 1401 1397 1397 1389 1374 1376 1380 1380 1373 1369 1363 1356 1348 1340 1336 1325 1313 1308 1308 1307 1306 1309 1312 1315 1316 1317 1320 1325 1331 1336 1343
1414 1418 1419 1414 1414 1392 1407 1408 1401 1396 1380 1401 1402 1406 1403 1399 1391 1371 1375 1374 1371 1367 1364 1358 1347 1343 1338 1332 1325 1315 1307 1303 1302 1301 1303 1304 1307 1309 1309 1314 1320 1323 1330 1337
1443 1435 1426 1416 1406 1393 1404 1401 1397 1397 1397 1399 1406 1406 1407 1401 1391 1377 1369 1367 1369 1366 1359 1351 1340 1339 1335 1330 1324 1317 1313 1306 1300 1298 1298 1299 1301 1304 1307 1310 1313 1318 1324 1328
1433 1436 1436 1425 1428 1406 1401 1401 1413 1403 1396 1397 1393 1388 1387 1385 1378 1376 1366 1361 1358 1356 1354 1348 1338 1332 1327 1322 1321 1314 1313 1313 1303 1296 1295 1296 1297 1297 1299 1303 1305 1309 1317 1321
1435 1423 1430 1421 1409 1400 1397 1402 1398 1395 1394 1393 1391 1386 1383 1376 1373 1368 1358 1359 1355 1353 1346 1340 1334 1327 1322 1313 1314 1309 1310 1311 1304 1296 1293 1291 1291 1293 1292 1295 1298 1302 1306 1312
1418 1411 1415 1415 1402 1400 1396 1394 1392 1390 1387 1384 1382 1379 1375 1370 1362 1356 1358 1355 1350 1344 1338 1332 1323 1316 1308 1305 1306 1301 1299 1297 1298 1295 1289 1285 1287 1289 1288 1288 1292 1296 1298 1301
1411 1407 1406 1401 1395 1390 1387 1386 1384 1382 1380 1377 1375 1372 1367 1364 1358 1358 1354 1350 1345 1338 1330 1323 1316 1309 1299 1296 1294 1290 1289 1289 1285 1284 1280 1276 1277 1277 1280 1280 1283 1287 1291 1294
1399 1397 1396 1387 1383 1383 1379 1378 1377 1375 1372 1370 1367 1362 1360 1359 1353 1349 1343 1338 1332 1325 1320 1315 1308 1297 1287 1282 1283 1281 1281 1279 1276 1271 1270 1267 1264 1267 1268 1269 1270 1274 1280 1285
Wind_Speed
6 4 9 22 14 13 3 6 8 7 10 6 10 17 19 32 25 24 35 41 46 54 58 57 50 40 39 42 45 46 45 42 41 42 42 42 43 42 41 38 36 35 33 31
2 10 18 11 5 10 12 18 19 15 15 6 16 23 18 12 23 35 33 41 47 51 53 55 48 37 32 34 40 46 47 44 42 43 43 42 42 42 41 38 38 36 34 32
20 11 14 10 7 6 15 15 18 19 6 5 9 19 10 13 23 36 39 47 50 56 53 53 47 37 32 34 37 43 46 44 42 42 43 43 41 40 41 42 42 40 37 34
10 12 11 10 8 15 24 13 14 8 4 12 4 23 6 8 13 11 25 38 42 50 49 47 40 33 31 31 34 39 44 41 40 41 42 46 44 45 46 46 44 41 39 37
9 5 7 10 22 11 21 5 6 2 4 5 3 6 4 8 7 12 15 32 41 44 44 42 34 25 25 29 33 36 39 38 39 40 41 43 44 42 42 44 43 41 40 39
10 1 5 9 4 9 2 4 5 4 1 11 10 9 6 6 7 6 11 32 32 31 36 35 19 18 24 29 31 34 37 37 38 38 41 42 41 42 44 44 43 43 43 42
3 6 3 6 4 2 4 5 3 3 1 11 9 6 19 6 11 11 14 30 35 40 36 33 19 22 26 28 31 35 36 37 37 39 39 39 40 42 42 43 42 44 45 46
2 17 9 6 10 9 11 12 7 7 9 19 4 10 12 11 15 26 28 34 38 40 36 28 18 22 24 29 32 35 35 37 40 40 40 40 39 41 41 42 43 44 44 43
5 16 3 4 3 8 2 5 13 2 2 1 10 14 10 4 9 6 15 28 32 30 32 22 22 23 24 28 32 33 34 36 40 43 43 42 41 43 42 41 43 44 42 42
3 7 4 1 2 3 7 3 2 2 5 8 10 9 15 9 6 7 13 19 36 24 20 20 19 18 22 24 27 29 33 37 41 43 44 44 43 44 43 41 42 44 44 43
3 5 10 2 7 8 2 5 5 3 4 12 16 15 6 8 1 6 10 24 31 22 7 8 10 14 17 20 25 28 34 41 42 41 45 48 48 49 48 45 43 44 44 44
6 5 6 17 11 5 6 15 16 9 10 5 4 10 29 28 20 20 22 28 28 20 13 6 7 9 15 22 27 30 34 40 39 40 45 48 52 53 53 51 48 47 47 43
4 4 11 6 11 14 8 10 9 7 3 19 16 14 24 24 22 29 22 32 32 35 21 21 26 30 34 37 40 38 40 39 38 44 47 49 51 54 56 56 54 51 49 44
15 14 18 19 17 3 6 9 9 14 14 17 18 24 24 26 28 29 25 30 32 37 42 39 41 43 40 42 48 44 38 36 41 45 47 48 50 51 54 55 56 54 51 46
9 22 18 27 26 24 28 29 30 28 30 29 31 29 21 24 28 24 43 43 36 30 33 40 45 41 40 41 43 37 39 42 42 45 49 49 47 49 53 53 51 52 50 46
6 12 23 30 29 26 27 33 34 34 33 35 29 30 28 30 42 37 44 44 42 28 29 32 37 45 40 44 51 54 51 49 50 51 52 51 51 50 52 49 49 49 47 44
9 9 14 18 8 22 18 24 35 35 29 26 27 26 18 17 21 25 27 29 30 31 33 36 40 38 38 44 46 49 50 49 46 50 52 52 51 51 49 48 47 47 45 44
17 18 14 20 20 27 15 7 15 26 26 22 11 16 17 23 36 16 29 37 40 41 43 40 43 47 46 38 39 41 45 44 44 45 47 48 49 48 46 47 46 44 44 45
18 17 11 13 20 21 20 7 8 8 4 13 12 13 17 30 32 9 36 41 37 37 37 37 43 44 43 42 36 29 31 33 34 35 37 40 43 44 45 45 45 44 45 45
15 11 9 13 10 12 6 12 24 14 8 11 13 12 16 23 14 16 42 38 35 37 35 40 42 47 45 42 44 39 24 20 24 29 34 38 41 42 41 42 42 41 42 44
4 5 8 12 13 7 12 8 16 5 8 11 13 15 14 10 11 33 37 32 34 39 43 42 44 42 41 43 40 39 36 27 23 24 28 31 34 37 37 37 36 39 42 44
5 4 4 4 4 13 23 9 5 11 15 14 22 22 22 25 24 25 27 34 40 41 40 36 43 44 43 33 38 40 37 33 27 24 25 26 29 31 33 35 36 37 41 44
4 6 3 4 4 23 30 13 24 7 8 13 15 18 24 24 25 27 31 36 39 40 42 40 37 42 44 38 34 36 39 36 32 28 26 23 25 29 29 31 36 38 40 44
4 11 4 2 7 11 28 31 23 10 17 22 22 25 21 21 31 35 34 39 43 42 42 46 45 44 46 41 42 41 40 30 34 35 30 27 26 28 28 30 34 37 42 46
8 1 8 10 15 23 25 21 17 23 26 21 25 28 28 24 29 27 32 37 39 46 50 47 48 50 49 42 41 41 42 37 36 37 36 34 36 37 36 33 33 38 42 46
15 15 11 14 21 19 24 27 24 25 19 22 27 32 34 31 35 37 41 44 41 45 45 47 51 50 51 48 46 43 41 39 41 37 40 38 36 39 40 39 40 43 46 47
Wind_Direction
198 145 198 226 209 236 206 225 234 251 267 234 233 246 251 266 274 261 267 269 267 265 271 273 274 271 263 256 251 246 239 236 229 225 223 223 225 224 225 224 226 228 229 230
231 212 220 229 209 225 240 255 261 269 257 216 267 262 263 256 262 264 262 266 268 271 270 273 275 274 264 253 249 244 237 235 230 226 227 227 228 227 228 227 228 228 229 230
232 231 218 222 232 220 232 235 252 255 315 247 291 276 259 253 253 262 259 261 267 268 270 273 275 271 262 253 246 245 237 233 229 226 224 226 227 228 227 225 227 227 227 229
245 237 210 205 228 206 260 222 254 260 300 277 129 292 235 251 247 252 257 263 263 270 273 275 276 269 258 255 246 240 234 231 229 228 227 227 228 225 227 229 230 228 227 228
243 190 202 212 229 183 253 194 249 226 227 325 200 267 197 213 252 248 252 255 266 276 279 278 279 266 250 247 245 237 229 228 230 230 231 231 230 232 236 235 232 230 230 229
246 217 201 214 178 190 139 97 53 58 101 266 193 207 308 176 216 268 258 258 263 273 276 283 260 238 238 238 238 231 226 227 230 231 231 231 232 233 234 235 232 231 231 230
295 225 205 177 238 149 150 109 292 308 71 250 186 208 249 252 243 223 248 253 269 272 262 280 256 235 227 230 230 226 225 227 229 227 228 229 231 233 236 238 237 234 232 231
245 292 167 172 197 200 215 194 197 207 252 272 115 245 267 226 244 251 267 273 282 282 281 267 243 244 229 226 225 227 227 230 228 224 224 225 228 233 236 239 240 238 239 238
197 268 129 211 179 153 189 188 236 338 46 354 263 269 284 247 282 301 300 317 297 280 274 265 246 234 224 230 230 231 230 231 230 228 226 224 228 231 233 236 238 240 241 240
255 282 261 72 29 286 192 177 74 213 200 247 273 267 270 297 277 313 358 333 329 308 273 255 231 230 232 239 241 238 237 237 235 231 232 231 230 232 235 237 239 240 241 240
168 159 282 106 191 211 189 245 231 200 184 253 258 266 221 219 23 320 310 317 333 315 290 226 224 234 249 252 248 242 242 239 238 237 237 237 234 236 236 237 238 241 241 242
206 159 229 267 284 265 215 261 240 238 239 215 231 266 286 272 281 290 282 286 298 291 235 227 270 273 276 268 255 250 249 243 241 243 244 243 241 242 241 239 239 240 240 238
183 251 275 262 281 237 215 225 235 258 273 239 242 258 257 270 272 271 271 271 267 253 257 274 283 285 286 280 273 266 253 242 244 246 247 246 246 246 246 244 243 241 240 236
255 247 241 252 246 255 225 225 232 236 249 256 241 251 261 270 270 272 274 280 276 264 276 289 288 286 285 285 276 265 257 258 257 254 252 248 249 250 250 247 245 242 241 237
233 251 240 248 253 254 257 260 258 252 256 253 257 258 257 261 271 284 292 290 283 273 280 287 284 281 282 277 266 257 265 262 260 256 251 249 252 252 250 247 246 243 240 237
325 280 273 260 251 240 238 248 256 262 261 259 262 266 267 274 280 279 278 281 290 323 346 334 312 298 286 276 273 270 269 271 265 258 254 250 249 249 248 246 243 241 236 233
269 284 292 280 310 308 281 262 252 254 261 261 264 270 3 353 332 313 325 32 5 0 358 350 348 343 314 292 284 276 272 271 264 259 254 249 249 247 246 244 239 236 234 231
264 269 269 279 285 269 294 313 256 250 267 287 349 28 14 359 335 35 28 6 347 340 337 335 335 342 344 316 286 283 277 271 266 260 255 249 245 243 243 240 237 233 229 228
230 248 267 259 265 279 271 346 3 339 9 13 29 20 12 355 337 292 351 342 327 328 330 333 336 338 342 344 334 292 276 267 262 259 256 251 247 243 240 236 233 229 227 224
308 294 279 299 294 284 64 350 331 314 210 19 28 2 351 348 335 320 327 327 321 325 323 325 332 328 332 337 339 345 324 292 278 268 258 250 246 242 240 235 232 229 226 226
355 326 263 275 278 274 37 347 344 306 314 329 336 332 325 325 313 302 312 317 321 317 316 321 324 318 319 322 330 332 336 329 305 289 274 262 254 248 244 238 235 231 226 222
291 301 304 310 291 264 5 356 355 288 291 305 323 327 318 316 312 309 315 317 320 319 316 316 316 317 311 316 317 321 320 320 320 311 296 274 260 249 241 236 233 230 227 224
264 206 217 194 262 314 317 302 309 280 301 302 302 310 318 315 314 313 319 319 319 314 316 318 315 311 309 313 308 299 300 304 303 299 294 278 268 251 244 238 234 227 225 224
251 259 244 341 262 280 284 293 290 290 316 312 311 310 313 306 319 320 315 315 315 315 312 314 314 311 305 308 303 299 295 291 288 284 277 276 265 260 255 247 241 235 230 223
228 243 244 265 274 277 277 281 289 298 303 291 305 309 311 311 309 301 297 305 308 309 312 312 308 308 305 303 294 296 299 292 293 277 267 258 252 254 250 249 250 245 243 237
240 251 254 260 265 276 283 289 283 302 288 299 309 307 309 309 307 311 308 307 302 304 305 303 304 305 306 304 296 287 282 286 288 286 272 259 252 251 246 241 237 233 233 232